timestamp,wind_dir_avg,wind_spd_avg,wind_spd_max_dir,wind_spd_gust,battery_voltage,lat,long
2024-05-05 00:04:00+00:00,315.0,0.01,48.0,0.0,12.33,47.59359,-54.27349
2024-05-05 00:14:00+00:00,315.0,0.01,48.0,0.0,12.17,47.59359,-54.27349
2024-05-05 00:24:00+00:00,315.0,0.01,48.0,0.0,12.17,47.59359,-54.27349
2024-05-05 00:34:00+00:00,315.0,0.01,48.0,0.0,12.17,47.59359,-54.27349
2024-05-05 00:44:00+00:00,315.0,0.01,48.0,0.0,12.17,47.59359,-54.27349
2024-05-05 00:54:00+00:00,315.0,0.01,48.0,0.0,12.17,47.59359,-54.27349
2024-05-05 01:04:00+00:00,315.0,0.01,48.0,0.0,12.17,47.59359,-54.27349
2024-05-05 01:14:00+00:00,315.0,0.01,48.0,0.0,12.17,47.59359,-54.27349
2024-05-05 01:24:00+00:00,315.0,0.01,48.0,0.0,12.17,47.59359,-54.27349
2024-05-05 01:34:00+00:00,315.0,0.01,48.0,0.0,12.17,47.59359,-54.27349
2024-05-05 01:44:00+00:00,315.0,0.01,48.0,0.0,12.17,47.59359,-54.27349
2024-05-05 01:54:00+00:00,315.0,0.01,48.0,0.0,12.17,47.59359,-54.27349
2024-05-05 02:04:00+00:00,315.0,0.01,48.0,0.0,12.17,47.59359,-54.27349
2024-05-05 02:14:00+00:00,315.0,0.01,48.0,0.0,12.17,47.59359,-54.27349
2024-05-05 02:24:00+00:00,315.0,0.01,48.0,0.0,12.17,47.59359,-54.27349
2024-05-05 02:34:00+00:00,315.0,0.01,48.0,0.0,12.17,47.59359,-54.27349
2024-05-05 02:44:00+00:00,315.0,0.01,48.0,0.0,12.17,47.59359,-54.27349
2024-05-05 02:54:00+00:00,315.0,0.01,48.0,0.0,12.17,47.59359,-54.27349
2024-05-05 03:04:00+00:00,315.0,0.01,48.0,0.0,12.17,47.59359,-54.27349
2024-05-05 03:14:00+00:00,315.0,0.01,48.0,0.0,12.17,47.59359,-54.27349
2024-05-05 03:24:00+00:00,315.0,0.01,48.0,0.0,12.17,47.59359,-54.27349
2024-05-05 03:34:00+00:00,315.0,0.01,48.0,0.0,12.17,47.59359,-54.27349
2024-05-05 03:44:00+00:00,315.0,0.01,48.0,0.0,12.17,47.59359,-54.27349
2024-05-05 03:54:00+00:00,315.0,0.01,48.0,0.0,12.17,47.59359,-54.27349
2024-05-05 04:04:00+00:00,315.0,0.01,48.0,0.0,12.17,47.59359,-54.27349
2024-05-05 04:14:00+00:00,315.0,0.01,48.0,0.0,12.09,47.59359,-54.27349
2024-05-05 04:24:00+00:00,315.0,0.01,48.0,0.0,12.09,47.59359,-54.27349
2024-05-05 04:34:00+00:00,315.0,0.01,48.0,0.0,12.09,47.59359,-54.27349
2024-05-05 04:44:00+00:00,315.0,0.01,48.0,0.0,12.09,47.59359,-54.27349
2024-05-05 04:54:00+00:00,315.0,0.01,48.0,0.0,12.09,47.59359,-54.27349
2024-05-05 05:04:00+00:00,315.0,0.01,48.0,0.0,12.09,47.59359,-54.27349
2024-05-05 05:14:01+00:00,315.0,0.01,48.0,0.0,12.09,47.59359,-54.27349
2024-05-05 05:24:01+00:00,315.0,0.01,48.0,0.0,12.09,47.59359,-54.27349
2024-05-05 05:34:01+00:00,315.0,0.01,48.0,0.0,12.09,47.59359,-54.27349
2024-05-05 05:44:01+00:00,315.0,0.01,48.0,0.0,12.09,47.59359,-54.27349
2024-05-05 05:54:01+00:00,315.0,0.01,48.0,0.0,12.09,47.59359,-54.27349
2024-05-05 06:04:01+00:00,315.0,0.01,48.0,0.0,12.09,47.59359,-54.27349
2024-05-05 06:14:00+00:00,315.0,0.01,48.0,0.0,12.09,47.59359,-54.27349
2024-05-05 06:24:00+00:00,315.0,0.01,48.0,0.0,12.09,47.59359,-54.27349
2024-05-05 06:34:00+00:00,315.0,0.01,48.0,0.0,12.09,47.59359,-54.27349
2024-05-05 06:44:00+00:00,315.0,0.01,48.0,0.0,12.09,47.59359,-54.27349
2024-05-05 06:54:00+00:00,315.0,0.01,48.0,0.0,12.09,47.59359,-54.27349
2024-05-05 07:04:00+00:00,315.0,0.01,48.0,0.0,12.09,47.59359,-54.27349
2024-05-05 07:14:00+00:00,315.0,0.01,48.0,0.0,12.01,47.59359,-54.27349
2024-05-05 07:24:00+00:00,315.0,0.01,48.0,0.0,12.01,47.59359,-54.27349
2024-05-05 07:34:00+00:00,315.0,0.01,48.0,0.0,12.01,47.59359,-54.27349
2024-05-05 07:44:00+00:00,315.0,0.01,48.0,0.0,12.01,47.59359,-54.27349
2024-05-05 07:54:00+00:00,315.0,0.01,48.0,0.0,12.01,47.59359,-54.27349
2024-05-05 08:04:00+00:00,315.0,0.01,48.0,0.0,12.01,47.59359,-54.27349
2024-05-05 08:14:00+00:00,315.0,0.01,48.0,0.0,12.01,47.59359,-54.27349
2024-05-05 08:24:00+00:00,315.0,0.01,48.0,0.0,12.01,47.59359,-54.27349
2024-05-05 08:34:00+00:00,315.0,0.01,48.0,0.0,12.01,47.59359,-54.27349
2024-05-05 08:44:00+00:00,315.0,0.01,48.0,0.0,12.01,47.59359,-54.27349
2024-05-05 08:54:00+00:00,315.0,0.01,48.0,0.0,12.01,47.59359,-54.27349
2024-05-05 09:04:00+00:00,315.0,0.01,48.0,0.0,12.01,47.59359,-54.27349
2024-05-05 09:14:00+00:00,315.0,0.01,48.0,0.0,12.01,47.59359,-54.27349
2024-05-05 09:24:00+00:00,315.0,0.01,48.0,0.0,12.01,47.59359,-54.27349
2024-05-05 09:34:00+00:00,315.0,0.01,48.0,0.0,12.01,47.59359,-54.27349
2024-05-05 09:44:00+00:00,315.0,0.01,48.0,0.0,12.01,47.59359,-54.27349
2024-05-05 09:54:00+00:00,315.0,0.01,48.0,0.0,12.01,47.59359,-54.27349
2024-05-05 10:04:00+00:00,315.0,0.01,48.0,0.0,12.01,47.59359,-54.27349
2024-05-05 10:14:00+00:00,315.0,0.01,48.0,0.0,12.33,47.59359,-54.27349
2024-05-05 10:24:00+00:00,315.0,0.01,48.0,0.0,12.33,47.59359,-54.27349
2024-05-05 10:34:00+00:00,315.0,0.01,48.0,0.0,12.33,47.59359,-54.27349
2024-05-05 10:44:00+00:00,315.0,0.01,48.0,0.0,12.33,47.59359,-54.27349
2024-05-05 10:54:00+00:00,315.0,0.01,48.0,0.0,12.33,47.59359,-54.27349
2024-05-05 11:04:00+00:00,315.0,0.01,48.0,0.0,12.33,47.59359,-54.27349
2024-05-05 11:14:00+00:00,315.0,0.01,48.0,0.0,13.29,47.59359,-54.27349
2024-05-05 11:24:00+00:00,315.0,0.01,48.0,0.0,13.29,47.59359,-54.27349
2024-05-05 11:34:00+00:00,315.0,0.01,48.0,0.0,13.29,47.59359,-54.27349
2024-05-05 11:44:00+00:00,315.0,0.01,48.0,0.0,13.29,47.59359,-54.27349
2024-05-05 11:54:00+00:00,315.0,0.01,48.0,0.0,13.29,47.59359,-54.27349
2024-05-05 12:04:00+00:00,315.0,0.01,48.0,0.0,13.29,47.59359,-54.27349
2024-05-05 12:14:00+00:00,315.0,0.01,48.0,0.0,13.6,47.59359,-54.27349
2024-05-05 12:24:00+00:00,315.0,0.01,48.0,0.0,13.6,47.59359,-54.27349
2024-05-05 12:34:00+00:00,315.0,0.01,48.0,0.0,13.6,47.59359,-54.27349
2024-05-05 12:44:00+00:00,315.0,0.01,48.0,0.0,13.6,47.59359,-54.27349
2024-05-05 12:54:00+00:00,315.0,0.01,48.0,0.0,13.6,47.59359,-54.27349
2024-05-05 13:04:00+00:00,315.0,0.01,48.0,0.0,13.6,47.59359,-54.27349
2024-05-05 13:14:00+00:00,315.0,0.01,48.0,0.0,14.24,47.59359,-54.27349
2024-05-05 13:24:00+00:00,315.0,0.01,48.0,0.0,14.24,47.59359,-54.27349
2024-05-05 13:34:00+00:00,315.0,0.01,48.0,0.0,14.24,47.59359,-54.27349
2024-05-05 13:44:00+00:00,315.0,0.01,48.0,0.0,14.24,47.59359,-54.27349
2024-05-05 13:54:00+00:00,315.0,0.01,48.0,0.0,14.24,47.59359,-54.27349
2024-05-05 14:04:00+00:00,315.0,0.01,48.0,0.0,14.24,47.59359,-54.27349
2024-05-05 14:14:00+00:00,315.0,0.01,48.0,0.0,13.68,47.59359,-54.27349
2024-05-05 14:24:00+00:00,315.0,0.01,48.0,0.0,13.68,47.59359,-54.27349
2024-05-05 14:34:00+00:00,315.0,0.01,48.0,0.0,13.68,47.59359,-54.27349
2024-05-05 14:44:00+00:00,315.0,0.01,48.0,0.0,13.68,47.59359,-54.27349
2024-05-05 14:54:00+00:00,315.0,0.01,48.0,0.0,13.68,47.59359,-54.27349
2024-05-05 15:04:00+00:00,315.0,0.01,48.0,0.0,13.68,47.59359,-54.27349
2024-05-05 15:14:00+00:00,315.0,0.01,48.0,0.0,14.0,47.59359,-54.27349
2024-05-05 15:24:00+00:00,315.0,0.01,48.0,0.0,14.0,47.59359,-54.27349
2024-05-05 15:34:00+00:00,315.0,0.01,48.0,0.0,14.0,47.59359,-54.27349
2024-05-05 15:44:00+00:00,315.0,0.01,48.0,0.0,14.0,47.59359,-54.27349
2024-05-05 15:54:00+00:00,315.0,0.01,48.0,0.0,14.0,47.59359,-54.27349
2024-05-05 16:04:00+00:00,315.0,0.01,48.0,0.0,14.0,47.59359,-54.27349
2024-05-05 16:14:00+00:00,315.0,0.01,48.0,0.0,14.4,47.59359,-54.27349
2024-05-05 16:24:00+00:00,315.0,0.01,48.0,0.0,14.4,47.59359,-54.27349
2024-05-05 16:34:00+00:00,315.0,0.01,48.0,0.0,14.4,47.59359,-54.27349
2024-05-05 16:44:00+00:00,315.0,0.01,48.0,0.0,14.4,47.59359,-54.27349
2024-05-05 16:54:00+00:00,315.0,0.01,48.0,0.0,14.4,47.59359,-54.27349
2024-05-05 17:04:00+00:00,315.0,0.01,48.0,0.0,14.4,47.59359,-54.27349
2024-05-05 17:14:00+00:00,315.0,0.01,48.0,0.0,14.4,47.59359,-54.27349
2024-05-05 17:24:00+00:00,315.0,0.01,48.0,0.0,14.4,47.59359,-54.27349
2024-05-05 17:34:00+00:00,315.0,0.01,48.0,0.0,14.4,47.59359,-54.27349
2024-05-05 17:44:00+00:00,315.0,0.01,48.0,0.0,14.4,47.59359,-54.27349
2024-05-05 17:54:00+00:00,315.0,0.01,48.0,0.0,14.4,47.59359,-54.27349
2024-05-05 18:04:00+00:00,315.0,0.01,48.0,0.0,14.4,47.59359,-54.27349
2024-05-05 18:14:00+00:00,315.0,0.01,48.0,0.0,13.92,47.59359,-54.27349
2024-05-05 18:24:00+00:00,315.0,0.01,48.0,0.0,13.92,47.59359,-54.27349
2024-05-05 18:34:00+00:00,315.0,0.01,48.0,0.0,13.92,47.59359,-54.27349
2024-05-05 18:44:00+00:00,315.0,0.01,48.0,0.0,13.92,47.59359,-54.27349
2024-05-05 18:54:00+00:00,315.0,0.01,48.0,0.0,13.92,47.59359,-54.27349
2024-05-05 19:04:00+00:00,315.0,0.01,48.0,0.0,13.92,47.59359,-54.27349
2024-05-05 19:14:01+00:00,315.0,0.01,48.0,0.0,13.6,47.59359,-54.27349
2024-05-05 19:24:01+00:00,315.0,0.01,48.0,0.0,13.6,47.59359,-54.27349
2024-05-05 19:34:01+00:00,315.0,0.01,48.0,0.0,13.6,47.59359,-54.27349
2024-05-05 19:44:01+00:00,315.0,0.01,48.0,0.0,13.6,47.59359,-54.27349
2024-05-05 19:54:01+00:00,315.0,0.01,48.0,0.0,13.6,47.59359,-54.27349
2024-05-05 20:04:01+00:00,315.0,0.01,48.0,0.0,13.6,47.59359,-54.27349
2024-05-05 20:14:00+00:00,315.0,0.01,48.0,0.0,13.6,47.59359,-54.27349
2024-05-05 20:24:00+00:00,315.0,0.01,48.0,0.0,13.6,47.59359,-54.27349
2024-05-05 20:34:00+00:00,315.0,0.01,48.0,0.0,13.6,47.59359,-54.27349
2024-05-05 20:44:00+00:00,315.0,0.01,48.0,0.0,13.6,47.59359,-54.27349
2024-05-05 20:54:00+00:00,315.0,0.01,48.0,0.0,13.6,47.59359,-54.27349
2024-05-05 21:04:00+00:00,315.0,0.01,48.0,0.0,13.6,47.59359,-54.27349
2024-05-05 21:14:00+00:00,315.0,0.01,48.0,0.0,13.44,47.59359,-54.27349
2024-05-05 21:24:00+00:00,315.0,0.01,48.0,0.0,13.44,47.59359,-54.27349
2024-05-05 21:34:00+00:00,315.0,0.01,48.0,0.0,13.44,47.59359,-54.27349
2024-05-05 21:44:00+00:00,315.0,0.01,48.0,0.0,13.44,47.59359,-54.27349
2024-05-05 21:54:00+00:00,315.0,0.01,48.0,0.0,13.44,47.59359,-54.27349
2024-05-05 22:04:00+00:00,315.0,0.01,48.0,0.0,13.44,47.59359,-54.27349
2024-05-05 22:14:00+00:00,315.0,0.01,48.0,0.0,13.21,47.59359,-54.27349
2024-05-05 22:24:00+00:00,315.0,0.01,48.0,0.0,13.21,47.59359,-54.27349
2024-05-05 22:34:00+00:00,315.0,0.01,48.0,0.0,13.21,47.59359,-54.27349
2024-05-05 22:44:00+00:00,315.0,0.01,48.0,0.0,13.21,47.59359,-54.27349
2024-05-05 22:54:00+00:00,315.0,0.01,48.0,0.0,13.21,47.59359,-54.27349
2024-05-05 23:04:00+00:00,315.0,0.01,48.0,0.0,13.21,47.59359,-54.27349
2024-05-05 23:14:00+00:00,315.0,0.01,48.0,0.0,12.65,47.59359,-54.27349
2024-05-05 23:24:00+00:00,315.0,0.01,48.0,0.0,12.65,47.59359,-54.27349
2024-05-05 23:34:00+00:00,315.0,0.01,48.0,0.0,12.65,47.59359,-54.27349
2024-05-05 23:44:00+00:00,315.0,0.01,48.0,0.0,12.65,47.59359,-54.27349
2024-05-05 23:54:00+00:00,315.0,0.01,48.0,0.0,12.65,47.59359,-54.27349
